User: anonymous   Login
Location: Unspecified
(41.5000°N, 0.0000°E)
Time: 19:06:52
(UTC+00:00)
Language:

Vanguard 1 Rocket - Orbit

View from above orbital plane
View from above orbital plane
View from above satellite
View from above satellite

Ground track
Ground track

The orbit data is extracted from the following two-line orbital elements,

1    16U 58002A   20220.38659605 -.00000104 +00000-0 -11950-3 0  9996
2    16 034.2654 007.5113 2023194 092.4949 290.7175 10.48678201464189
Epoch (UTC): 07 August 2020 09:16:41
Eccentricity: 0.2023194
inclination: 34.2654°
perigee height: 655 km
apogee height: 4222 km
right ascension of ascending node: 7.5113°
argument of perigee: 92.4949°
revolutions per day: 10.48678201
mean anomaly at epoch: 290.7175°
orbit number at epoch: 46418

The dashed part of the orbit path shows where the satellite is in the earth's shadow,  

DLR